Regional Weather Roundup
Issued by NWS

Home | Current Version | Previous Version | Graphics & Text | Print | Product List | Glossary On
Versions: 1 2 3 4 5 6 7 8 9 10 11 12 13 14 15 16 17 18 19 20 21 22 23 24 25 26 27 28 29 30 31 32 33 34 35 36 37 38 39 40 41 42 43 44 45 46 47 48 49 50
000
ASUS43 KDTX 300210
RWRMI
MICHIGAN HOURLY REGIONAL WEATHER ROUNDUP
NATIONAL WEATHER SERVICE DETROIT/PONTIAC MI
1000 PM EDT SUN MAY 29 2016

NOTE: "FAIR" INDICATES FEW OR NO CLOUDS BELOW 12,000 FEET WITH NO
SIGNIFICANT WEATHER AND/OR OBSTRUCTION TO VISIBILITY.

MIZ047>049-052>055-059>063-066>070-074>076-081>083-300300-
SOUTHEAST LOWER MICHIGAN

CITY           SKY/WX    TMP DP  RH WIND       PRES   REMARKS
ADRIAN         CLEAR     75  57  53 NW12      29.98R
ALMA           CLEAR     68  56  66 SW6       29.95S
ANN ARBOR      CLEAR     74  56  53 NW13G20   29.97R
BAD AXE        CLEAR     72  57  60 W7        29.93R
CARO           CLEAR     72  56  58 SW8       29.94R
DETROIT CITY   CLEAR     79  55  43 NW8       29.93R
DETROIT        PTCLDY    78  57  48 W12       29.95R
FLINT          CLEAR     73  55  53 W8        29.96R
GROSSE ILE     CLEAR     68  64  88 S3        29.93S
HILLSDALE      CLEAR     70  49  46 NW8       30.00R
HOWELL         CLEAR     71  54  54 W7        29.98R

CITY           SKY/WX    TMP DP  RH WIND       PRES   REMARKS
JACKSON        CLEAR     69  54  58 W7        29.99R
LAMBERTVILLE   CLEAR     76  55  48 CALM      29.96S
LANSING        CLEAR     71  56  58 W6        29.98R
LAPEER         FAIR      73  55  53 W9        29.96R
MASON          CLEAR     70  55  59 W6        29.98S
MONROE         CLEAR     74  58  57 NW6G16    29.94R
MT. CLEMENS    PTCLDY    69  64  86 W3        29.91R
PONTIAC        CLEAR     74  56  53 W14       29.96R
PORT HOPE        N/A     74  58  57 VRB6      29.90R
PORT HURON     CLEAR     68  66  94 CALM      29.93R
TRI CITIES     CLEAR     73  56  54 W13       29.94R
MIDLAND        FAIR      71  56  60 W5        29.93R
TROY           PTCLDY    79  57  46 W10G20    29.96R
SAGINAW HB     CLEAR     72  54  53 SW9       29.94R
$$
MIZ043>046-050>051-056>058-064>065-071>073-077>080-300300-
SOUTHWEST LOWER MICHIGAN

CITY           SKY/WX    TMP DP  RH WIND       PRES   REMARKS
BATTLE CREEK   CLEAR     67  56  67 SW6       29.99S
BENTON HARBOR  CLEAR     67  56  67 W3        29.98S
BIG RAPIDS     MOCLDY    67  60  78 SW5       29.94S
COLDWATER      CLEAR     69  54  57 CALM      29.99S
FREMONT        FAIR      66  59  79 SW6       29.95S
HOLLAND        CLEAR     68  57  68 SW8       29.97S
GRAND RAPIDS   PTCLDY    72  58  61 SW8       29.97R
IONIA          FAIR      67  56  66 SW7       29.95S
KALAMAZOO      CLEAR     70  56  61 SW5       29.99R
LUDINGTON      CLEAR     60  56  84 SW5       29.94R
MARSHALL       CLEAR     67  55  67 W5        29.99R
MOUNT PLEASANT CLOUDY    71  58  64 SW9       29.93S
MUSKEGON       MOCLDY    63  54  72 SW7       29.96R
SOUTH HAVEN    CLEAR     69  58  66 SW3       29.97S
$$
MIZ016>042-300300-
NORTHERN LOWER MICHIGAN

CITY           SKY/WX    TMP DP  RH WIND       PRES   REMARKS
ALPENA         CLOUDY    71  56  58 SW9       29.88R
BEAVER ISLAND  MOCLDY    54  52  92 SW7       29.85F
BELLAIRE       CLOUDY    69  58  67 CALM      29.89R
CADILLAC       PTCLDY    66  57  73 W10       29.93R
CHARLEVOIX     PTCLDY    67  58  74 SW10      29.90R
FRANKFORT      PTCLDY    60  55  83 CALM      29.90S
GAYLORD        PTCLDY    67  57  70 W7        29.90S
GRAYLING       PTCLDY    68  58  69 SW5       29.92R
HARBOR SPRINGS MOCLDY    64  57  79 W5        29.86S
HOUGHTON LAKE  MOCLDY    68  58  70 SW9       29.93R
OSCODA         MOCLDY    73  56  56 W8        29.89R
PELLSTON       PTCLDY    66  57  72 W14G22    29.86S
ROGERS CITY    CLOUDY    69  56  61 W9        29.87R
TRAVERSE CITY  PTCLDY    70  58  65 SW5       29.87S
$$
MIZ007>008-015-300300-
EASTERN UPPER MICHIGAN

CITY           SKY/WX    TMP DP  RH WIND       PRES   REMARKS
KINROSS          N/A     61  57  88 SW5       29.83S
MACKINAC ISLAN PTCLDY    60  55  82 SW13G20   29.83S
NEWBERRY       MOCLDY    60  59  97 SW5       29.82S
S. S. MARIE    PTCLDY    63  59  87 SW8       29.82R
MUNISING         N/A     59  58  96 CALM      29.84R
$$
MIZ004>006-011>014-085-300300-
CENTRAL UPPER MICHIGAN

CITY           SKY/WX    TMP DP  RH WIND       PRES   REMARKS
MANISTIQUE     CLOUDY    60  60  97 W6        29.83R
ESCANABA       CLOUDY    64  57  77 W7        29.86R
MENOMINEE      CLOUDY    68  63  83 CALM      29.89R
SAWYER-GWINN   MOCLDY    61  57  88 W6        29.87R
$$
MIZ001>003-009>011-084-300300-
WESTERN UPPER MICHIGAN

CITY           SKY/WX    TMP DP  RH WIND       PRES   REMARKS
IRON MOUNTAIN  MOCLDY    63  57  81 W8        29.88R
HOUGHTON       MOCLDY    58  51  78 W14       29.84R
COPPER HARBOR    N/A     59  55  87 NW13G22   29.80R
IRONWOOD       MOCLDY    61  55  82 W5        29.88S
$$

ABBREVIATIONS USED IN REMARKS
   TC - TEMPERATURE IN CELSIUS
  WCI - WIND CHILL INDEX
   HX - HEAT INDEX
  VSB - VISIBILITY





USA.gov is the U.S. government's official web portal to all federal, state and local government web resources and services.